FIREFLY

Last updated on Thu Nov 02 2017 00:19:32 GMT+0000 (Coordinated Universal Time)

1 39404U 13064AA 17304.93805027 .14819696 74099-5 47644-3 0 9999 2 39404 40.4789 145.0538 0001854 314.5146 47.1024 16.45154788222993

Satellite not in orbit